Location: Bidwell Hollow
(37.7387°N, 90.1707°W)
Time: 00:34:21
(UTC+00:00)

Courier 1B - All Passes

Search period start: 12 May 2026 00:00
Search period end: 22 May 2026 00:00
Orbit: 962 x 1209 km, 28.3° (Epoch: 11 May)

Date Brightness Start Highest point End Pass type
(mag) Time Alt. Az. Time Alt. Az. Time Alt. Az.
12 May - 14:30:13 10° SSW 14:35:22 20° SSE 14:40:37 10° ESE daylight
12 May - 16:21:55 10° SW 16:28:48 37° SSE 16:35:50 10° ESE daylight
12 May - 18:15:20 10° WSW 18:22:35 42° S 18:29:48 10° ESE daylight
12 May - 20:09:41 10° WSW 20:16:15 30° SSW 20:22:41 10° SE daylight
12 May - 22:06:34 10° SW 22:09:31 12° SSW 22:12:25 10° S daylight
13 May - 13:37:41 10° S 13:41:36 15° SSE 13:45:37 10° ESE daylight
13 May - 15:28:21 10° SW 15:34:54 32° SSE 15:41:39 10° ESE daylight
13 May - 17:21:25 10° WSW 17:28:36 42° S 17:35:53 10° ESE daylight
13 May - 19:15:28 10° WSW 19:22:22 34° SSW 19:29:10 10° SE daylight
13 May - 21:11:05 10° WSW 21:15:45 17° SSW 21:20:21 10° S daylight
14 May - 12:46:34 10° SSE 12:47:55 11° SSE 12:49:16 10° SE daylight
14 May - 14:34:58 10° SW 14:41:03 28° SSE 14:47:22 10° ESE daylight
14 May - 16:27:37 10° WSW 16:34:39 41° S 16:41:53 10° ESE daylight
14 May - 18:21:23 10° WSW 18:28:26 38° S 18:35:30 10° SE daylight
14 May - 20:16:19 10° WSW 20:21:58 22° SSW 20:27:32 10° SSE daylight
15 May - 13:41:50 10° SSW 13:47:16 23° SSE 13:52:54 10° ESE daylight
15 May - 15:33:54 10° WSW 15:40:44 38° S 15:47:48 10° ESE daylight
15 May - 17:27:24 10° WSW 17:34:29 40° S 17:41:42 10° ESE daylight
15 May - 19:21:53 10° WSW 19:28:07 26° SSW 19:34:20 10° SSE daylight
16 May - 12:49:02 10° SSW 12:53:32 18° SSE 12:58:11 10° ESE daylight
16 May - 14:40:20 10° SW 14:46:50 35° SSE 14:53:39 10° ESE daylight
16 May - 16:33:31 10° WSW 16:40:32 42° S 16:47:46 10° ESE daylight
16 May - 18:27:39 10° WSW 18:34:14 31° SSW 18:40:54 10° SE daylight
16 May - 20:23:55 10° WSW 20:27:36 14° SSW 20:31:16 10° S daylight
17 May - 11:56:53 10° S 11:59:52 13° SSE 12:02:54 10° SE daylight
17 May - 13:46:55 10° SW 13:53:01 30° SSE 13:59:24 10° ESE daylight
17 May - 15:39:43 10° WSW 15:46:36 41° S 15:53:46 10° ESE daylight
17 May - 17:33:33 10° WSW 17:40:20 35° SSW 17:47:15 10° SE daylight
17 May - 19:28:49 10° WSW 19:33:48 18° SSW 19:38:49 10° SSE daylight
18 May - 12:53:40 10° SSW 12:59:14 25° SSE 13:05:04 10° ESE daylight
18 May - 14:46:02 10° WSW 14:52:42 40° S 14:59:42 10° ESE daylight
18 May - 16:39:36 10° WSW 16:46:25 38° S 16:53:28 10° SE daylight
18 May - 18:34:15 10° WSW 18:39:58 23° SSW 18:45:47 10° SSE daylight
19 May - 12:00:42 10° SSW 12:05:31 20° SSE 12:10:33 10° ESE daylight
19 May - 13:52:27 10° SW 13:58:50 36° S 14:05:36 10° ESE daylight
19 May - 15:45:44 10° WSW 15:52:30 40° S 15:59:34 10° ESE daylight
19 May - 17:39:58 10° WSW 17:46:07 27° SSW 17:52:26 10° SE daylight
19 May - 19:37:47 10° SW 19:39:27 11° SSW 19:41:07 10° SSW daylight
20 May - 11:08:07 10° S 11:11:51 15° SSE 11:15:43 10° ESE daylight
20 May - 12:58:59 10° SW 13:05:02 32° SSE 13:11:25 10° ESE daylight
20 May - 14:51:58 10° WSW 14:58:36 40° S 15:05:37 10° ESE daylight
20 May - 16:45:52 10° WSW 16:52:15 31° SSW 16:58:52 10° SE daylight
20 May - 18:41:43 10° WSW 18:45:40 15° SSW 18:49:39 10° S daylight
21 May - 10:16:35 10° SSE 10:18:15 11° SSE 10:19:54 10° SE visible
21 May - 12:05:40 10° SW 12:11:17 28° SSE 12:17:11 10° ESE daylight
21 May - 13:58:16 10° WSW 14:04:44 40° S 14:11:35 10° ESE daylight
21 May - 15:51:55 10° WSW 15:58:23 34° SSW 16:05:09 10° SE daylight
21 May - 17:46:54 10° WSW 17:51:51 19° SSW 17:56:57 10° SSE daylight
